sat.trackr.live / text

‹ back to catalog

TELSTAR 12V

NORAD 41036 · 2015-068A

PAYLOAD ACTIVE UNKNOWN

§ Identity

Operator
Country
CA
Launch date
2015-11-24
Launch site
TANSC
Launch vehicle
Mass (kg)
RCS (m²)
29.95

Purposes: comms

External: N2YO · Heavens-Above · Gunter

§ Orbital elements

Epoch: 2026-09-20T03:09:51.018336Z

Period
1,436.08 min
Inclination
0.0174°
Eccentricity
0.0002204
Mean motion
1.00272752 rev/d
Perigee alt
35,777.0 km
Apogee alt
35,795.6 km
Semi-major
42,164.5 km
B*
0.0000e+0
RAAN
209.9003°
Arg perigee
317.5783°
Mean anomaly
224.0271°
Rev number
3,957

§ Raw data

TELSTAR 12V1 41036U 15068A   26263.13184049 -.00000123  00000+0  00000+0 0  99982 41036   0.0174 209.9003 0002204 317.5783 224.0271  1.00272752 39571

JSON: /api/v1/satellites/41036 · /tle

For live sub-satellite position, see the globe view (requires WebGL).

§ Visibility from observer

Set your observer location to see the next 7 days of passes ≥ 10°. The values pass through the URL so the page stays shareable.

No JS? Fill the form by hand. The geolocation button needs JavaScript.